This is the latest recevied weather packets stored in our database for station/object WA4IKQ. If no packets are shown the sender has not sent any weather packets the latest 10 day(s).
| Time | Temp. | Humidity | Pressure | Rain* | Wind** | Luminosity | Snow |
|---|---|---|---|---|---|---|---|
| 1778223993 | 23.89° C | 83% | 1013.3 hPa | 0 mm | 0 m/s | - | - |
| 1778223693 | 24.44° C | 83% | 1013.3 hPa | 0 mm | 0.45 m/s, 187° | - | - |
| 1778223563 | 24.44° C | 82% | 1013.3 hPa | 0 mm | 0.89 m/s, 245° | - | - |
| 1778223393 | 24.44° C | 82% | 1013.3 hPa | 0 mm | 0.89 m/s, 245° | - | - |
| 1778223093 | 24.44° C | 82% | 1013.4 hPa | 0 mm | 0.45 m/s, 239° | - | - |
| 1778222964 | 24.44° C | 82% | 1013.4 hPa | 0 mm | 1.34 m/s, 271° | - | - |
| 1778222897 | 24.44° C | 82% | 1013.4 hPa | 0 mm | 1.34 m/s, 271° | - | - |
| 1778222794 | 24.44° C | 82% | 1013.4 hPa | 0 mm | 1.34 m/s, 271° | - | - |
| 1778222750 | 24.44° C | 82% | 1013.4 hPa | 0 mm | 0 m/s | - | - |
| 1778222491 | 24.44° C | 82% | 1013.4 hPa | 0 mm | 0 m/s | - | - |
| 1778222191 | 24.44° C | 82% | 1013.4 hPa | 0 mm | 0 m/s | - | - |
| 1778221377 | 24.44° C | 80% | 1013.5 hPa | 0 mm | 0 m/s | - | - |
| 1778220992 | 24.44° C | 80% | 1013.5 hPa | 0 mm | 0 m/s | - | - |
| 1778220751 | 24.44° C | 80% | 1013.6 hPa | 0 mm | 0.45 m/s, 242° | - | - |
| 1778220693 | 24.44° C | 80% | 1013.5 hPa | 0 mm | 1.79 m/s, 212° | - | - |
| 1778220394 | 24.44° C | 80% | 1013.6 hPa | 0 mm | 0.45 m/s, 242° | - | - |
| 1778220044 | 25° C | 79% | 1013.7 hPa | 0 mm | 0.45 m/s, 274° | - | - |
| 1778219791 | 25° C | 79% | 1013.7 hPa | 0 mm | 0.45 m/s, 274° | - | - |
| 1778219751 | 25° C | 78% | 1013.7 hPa | 0 mm | 0.89 m/s, 226° | - | - |
| 1778219486 | 25° C | 77% | 1013.8 hPa | 0 mm | 0 m/s | - | - |
| 1778219454 | 25° C | 77% | 1013.8 hPa | 0 mm | 0 m/s | - | - |
| 1778219192 | 25° C | 78% | 1013.7 hPa | 0 mm | 0.89 m/s, 226° | - | - |
| 1778218894 | 25° C | 77% | 1013.8 hPa | 0 mm | 0 m/s | - | - |
| 1778218780 | 25° C | 77% | 1013.9 hPa | 0 mm | 0.45 m/s, 195° | - | - |
| 1778218592 | 25° C | 77% | 1013.9 hPa | 0 mm | 0.45 m/s, 195° | - | - |
* Rain latest hour (hover to see other rain measurements)
** Current wind speed in m/s (hover to see current wind gust speed)